Flag for Austria Weather past 2 weeks in Melk, Lower Austria, Austria

Now
34 °F

Passing clouds.


Feels Like: 30 °F
Forecast: 29 / 43 °F
Wind: 5 mph from Southwest

Location: Tulln Airport

Current Time: Mar 5, 2015 at 5:34:21 AM

Latest Report: Mar 5, 2015 at 4:50 AM


Visibility: 15 mi

Pressure: 30.36 "Hg

Humidity: 87%

Dew point: 30 °F

Location of MelkLocation

Historic Weather in Melk — Graph

°F

Melk temperature yesterday

Maximum temperature yesterday: 46 °F (at 1:50 PM)
Minimum temperature yesterday: 30 °F (at 4:50 AM)
Average temperature yesterday: 41 °F

Past Weeks' High & Low Weather Summary

 TemperatureHumidityPressure
High52 °F (Feb 20, 1:50 PM)100% (Feb 20, 7:50 AM)30.74 "Hg (Feb 20, 7:50 AM)
Low23 °F (Feb 20, 4:50 AM)43% (Mar 3, 12:50 PM)29.56 "Hg (Feb 21, 7:50 PM)
Average40 °F79%30.02 "Hg
* Reported Feb 17 9:50 PM — Mar 4 9:50 PM, Melk, Weather by CustomWeather, © 2015

Note: Actual official high and low records may vary slightly from our data, if they occured in-between our weather recording intervals... More about our weather records

Advertising

Melk weather history for previous 24 hours

 ConditionsComfort  
Time TempWeatherWind HumidityBarometerVisibility
9:50 PM
Wed, Mar 4
37 °FPassing clouds.7 mph81%30.30 "Hg12 mi
8:50 PM39 °FPartly cloudy.7 mph75%30.30 "Hg12 mi
7:50 PM39 °FPassing clouds.8 mph75%30.30 "Hg16 mi
6:50 PM41 °FPassing clouds.12 mph70%30.30 "Hg19 mi
5:50 PM45 °FPassing clouds.15 mph61%30.24 "Hg19 mi
4:50 PM46 °FPassing clouds.15 mph62%30.24 "Hg31 mi
3:50 PM46 °FScattered clouds.14 mph57%30.24 "Hg31 mi
2:50 PM46 °FScattered clouds.13 mph62%30.24 "Hg31 mi
1:50 PM46 °FScattered clouds.17 mph62%30.24 "Hg31 mi
12:50 PM43 °FSprinkles. Scattered clouds.5 mph71%30.24 "Hg25 mi
11:50 AM43 °FScattered clouds.12 mph71%30.24 "Hg25 mi
10:50 AM43 °FPartly sunny.26 mph76%30.24 "Hg25 mi
9:50 AM43 °FBroken clouds.29 mph76%30.24 "Hg25 mi
8:50 AM41 °FBroken clouds.24 mph76%30.21 "Hg25 mi
7:50 AM39 °FLight rain. Partly sunny.21 mph81%30.18 "Hg16 mi
6:50 AM41 °FPartly sunny.18 mph66%30.15 "Hg22 mi
5:50 AM32 °FPartly cloudy.6 mph80%30.12 "Hg28 mi
Weather by CustomWeather, © 2015

See weather overviewHow to use our weather pages